目前分類:開盒報告 (41)

瀏覽方式: 標題列表 簡短摘要
發表時間 文章標題 人氣 留言
2016-08-29 BRONCO威駿 1/48 CURTISS P-40C(HAWK81-A2)寇帝斯 P-40C飛虎隊 (335) (0)
2016-08-29 KINETIC 1/48 ROCAF F-16A/B 70TH FLYING TIGERS (394) (0)
2016-04-11 造型村 A-1H SKYRAIDER U.S.NAVY (208) (1)
2014-05-11 KINETIC 1/48 ROCAF Mirage2000-5EI (834) (7)
2014-04-18 KITTY HAWK 1/48 SH-2F (618) (0)
2014-04-15 MRC 1/48 H-34 (182) (0)
2014-04-11 TRUMPETER 1/48 HU-16A (313) (2)
2012-12-14 ACADEMY 1/48 R.O.C.N 500MD/ASW (333) (5)
2011-10-24 ITALERI 1/48 S-3A/B (141) (1)
2011-10-15 模力堂 1/48 AT-3自強號戰機 (1664) (3)
2011-04-23 AFV CLUB 1/48 F-5F (492) (1)
2011-04-09 KINETIC 1/48 M2000-5DI (246) (2)
2011-04-04 KINETIC 1/48 S-2F (478) (5)
2011-04-03 TRUMPETER 1/48 F-100F (219) (2)
2010-11-22 1/48 TA-4J SKY HAWK (61) (0)
2010-11-15 AFV CLUB 1/48 R.O.C. F-5E (903) (0)
2010-09-16 KINETIC 1/48 E-2C HAWKEYE 2000 (311) (3)
2010-08-18 AFV CLUB 1/48 RF-5E (194) (2)
2010-08-10 TRUMPETER 1/72 FBC-1 (91) (0)
2010-06-10 TAMIYA 1/48 U.S.NAVY PILOTS w/"MOTO-TUG" (89) (2)
2010-05-30 1/72 小號手F-8II FINBACK-B (239) (2)
2010-04-26 AFV CLUB 1/48 NORTHROP F-5E (99) (2)
2010-04-21 TAMIYA 1/48 P-51D (143) (2)
2010-04-18 TRUMPETER 1/48 F-100C SUPER SABRE (95) (1)
2009-10-02 ACADEMY 1/48 CH-46E直升機 (127) (3)
2009-09-29 ACADEMY 1/35 OH-58D (263) (2)
2009-08-21 KINETIC 1/48 ROCAF F-16A/B (1850) (10)
2009-08-18 KINETIC 1/48 ISRAEL F-16I (422) (2)
2009-04-29 ITALERY 1/72 C-119G FLYING BOX CAR 飛行箱車 (91) (2)
2008-12-26 1/32 小號手SBD-1/2無畏式 (390) (10)
2008-11-18 AFV戰鷹1/35 S-70C空軍海鷗救護直昇機 (1164) (11)
2008-09-18 小號手1/48 C-47A SKYTRAIN (179) (8)
2008-09-02 TAMIYA 1/72 SUKHOI SU-34 (533) (2)
2008-08-17 FUJIMI 1/72 E-2K HAWKEYE 2000中民國空軍塗裝 (134) (1)
2008-07-30 Revell 1/144 Airbus A380 (370) (4)
2008-07-30 虎翼1/48F-86國軍水貼 (222) (0)
2008-07-27 ACADEMY 1/48 F-86F MIG KILLER (515) (7)
2008-07-23 TESTORS 1/48 T-33A Trainer (109) (2)
2008-02-21 TAMIYA 1/32 三菱海軍零式艦上戰鬥機21型 (442) (3)
2008-02-08 TAMIYA 1/48 F4U-1D (682) (0)
2008-02-08 ACADEMY 1/48 CH-53E超級種馬 (767) (7)